www.pogodaiklimat.ru

Погода и климат >> Архив погоды >> Бразилия >> Santa Tereza


ПОГОДА в Santa Tereza

  • Прогноз погоды в Santa Tereza
  • Монитор погоды в Santa Tereza
  • Климат города

АРХИВ ПОГОДЫ в Santa Tereza

Время (UTC), дата Ветер
(напр.,м/с)
 
Видим.   Явления Облачность Т
(С)
Тd
(С)
f
(%)
Тe
(С)
Тes
(С)
Комфортность P
(гПа)
Po
(гПа)
Тmin
(С)
Tmax
(С)
R
(мм)
R24
(мм)
S
(см)
02 16.07 С 1
{3}
н/о н/о +15.4 -29.7 3 +16 +16 1023.8 912.0
01 16.07 С 2
{2}
н/о н/о +16.0 -29.3 3 +17 +17 1023.4 911.9
03 16.07 С 2
{3}
н/о н/о +15.9 -29.4 3 +17 +17 1023.3 911.8
04 16.07 С 2
{3}
н/о н/о +15.8 -29.5 3 +16 +16 1023.2 911.6
05 16.07 СЗ 1
{3}
н/о н/о +15.4 -29.8 3 +16 +16 1023.1 911.4
06 16.07 СЗ 1
{3}
н/о н/о +14.8 -30.2 3 +16 +16 1023.1 911.2
08 16.07 СЗ 1
{2}
н/о н/о +14.3 -30.5 3 +15 +15 1023.4 911.3
07 16.07 СЗ 1
{2}
н/о н/о +14.5 -30.3 3 +15 +15 1023.2 911.2
09 16.07 СЗ 1
{3}
н/о н/о +14.3 -30.5 3 +15 +15 1023.8 911.6
10 16.07 СЗ 1
{2}
н/о н/о +14.5 -30.4 3 +15 +15 1024.1 912.0
11 16.07 СЗ 1
{2}
н/о н/о +15.9 -29.4 3 +17 +17 1024.2 912.6
12 16.07 З 1
{2}
н/о н/о +17.5 -28.3 3 +19 +19 1024.3 913.2
14 16.07 С 1
{2}
н/о н/о +19.3 -27.1 3 +20 +20 1023.2 912.9
13 16.07 штиль 0
{2}
н/о н/о +19.4 -27.0 3 +19 +19 1023.5 913.2
15 16.07 С 1
{2}
н/о н/о +20.4 -26.4 3 +21 +21 комфорт 1022.2 912.4
16 16.07 штиль 0
{2}
н/о н/о +19.3 -27.1 3 +19 +19 1022.3 912.1
17 16.07 штиль 0
{2}
н/о н/о +19.8 -26.8 3 +19 +19 1021.4 911.5
18 16.07 СЗ 1
{1}
н/о н/о +19.7 -26.8 3 +20 +20 1021.1 911.2
20 16.07 штиль 0
{1}
н/о н/о +18.2 -27.8 3 +18 +18 1022.3 911.7
19 16.07 штиль 0
{1}
н/о н/о +19.0 -27.3 3 +18 +18 1021.7 911.5
21 16.07 штиль 0
{1}
н/о н/о +17.7 -27.8 3 +18 +18 1022.6 911.8
22 16.07 штиль 0
{1}
н/о н/о +17.2 -28.6 3 +17 +17 1023.1 912.1
23 16.07 штиль 0
{1}
н/о н/о +17.0 -28.7 3 +17 +17 1023.4 912.3
00 17.07 штиль 0
{1}
н/о н/о +16.6 -28.9 3 +17 +17 1023.8 912.5
02 17.07 штиль 0 н/о н/о +16.4 -29.1 3 +17 +17 1024.1 912.7
01 17.07 штиль 0
{1}
н/о н/о +16.3 -29.1 3 +16 +16 1024.2 912.7
03 17.07 штиль 0
{1}
н/о н/о +15.9 -29.4 3 +16 +16 1024.1 912.5
04 17.07 штиль 0
{1}
н/о н/о +15.5 -29.7 3 +16 +16 1023.8 912.1
05 17.07 штиль 0
{1}
н/о н/о +15.5 -29.7 3 +16 +16 1023.6 911.9
06 17.07 штиль 0
{1}
н/о н/о +15.8 -29.5 3 +16 +16 1023.2 911.6
08 17.07 штиль 0
{2}
н/о н/о +15.4 -29.8 3 +16 +16 1023.4 911.7
07 17.07 штиль 0
{1}
н/о н/о +15.1 -29.9 3 +15 +15 1023.4 911.6
09 17.07 штиль 0
{1}
н/о н/о +14.8 -30.1 3 +15 +15 1024.1 912.1
10 17.07 штиль 0
{1}
н/о н/о +15.4 -29.8 3 +16 +16 1024.4 912.6
11 17.07 штиль 0
{1}
н/о н/о +17.3 -28.5 3 +17 +17 1024.3 913.2
12 17.07 В 1
{2}
н/о н/о +19.2 -10.8 12 +20 +20 1024.0 913.6
14 17.07 СВ 1
{2}
н/о н/о +21.3 +19 +19 1023.1 913.5
13 17.07 В 1
{2}
н/о н/о +19.5 -27.0 3 +20 +20 1024.1 913.8
15 17.07 В 1
{2}
н/о н/о +21.8 -15.1 7 +21 +21 комфорт 1022.2 912.9
16 17.07 В 1
{2}
н/о н/о +22.0 -25.3 3 +19 +19 1021.5 912.3
17 17.07 В 1
{2}
н/о н/о +21.7 -25.5 3 +19 +19 1021.0 911.8
18 17.07 В 1
{2}
н/о н/о +20.1 -26.6 3 +21 +21 комфорт 1021.4 911.6
20 17.07 штиль 0
{2}
н/о н/о +17.5 +16.7 95 +17 +17 1022.9 912.0
19 17.07 штиль 0
{2}
н/о н/о +19.3 -27.1 3 +19 +19 1021.9 911.7
21 17.07 штиль 0
{2}
н/о н/о +16.4 -29.0 3 +17 +17 1023.4 912.0
22 17.07 штиль 0
{1}
н/о н/о +15.4 -29.8 3 +16 +16 1024.2 912.4
23 17.07 штиль 0
{1}
н/о н/о +15.1 -30.0 3 +15 +15 1024.7 912.7
00 18.07 штиль 0
{1}
н/о н/о +14.7 -30.2 3 +15 +15 1025.2 913.0
02 18.07 штиль 0
{1}
н/о н/о +15.2 -29.9 3 +15 +15 1025.1 913.1
01 18.07 штиль 0
{1}
н/о н/о +14.8 -30.2 3 +15 +15 1025.4 913.2
03 18.07 штиль 0
{1}
н/о н/о +15.2 -29.9 3 +15 +15 1025.0 913.0
04 18.07 штиль 0
{1}
н/о н/о +15.1 -29.9 3 +15 +15 1024.7 912.7
05 18.07 штиль 0
{1}
н/о н/о +15.3 -29.8 3 +15 +15 1024.1 912.3
06 18.07 штиль 0
{1}
н/о н/о +15.0 -30.0 3 +15 +15 1024.0 912.1
08 18.07 штиль 0
{1}
н/о н/о +14.6 -30.3 3 +15 +15 1024.2 912.1
07 18.07 штиль 0
{1}
н/о н/о +14.7 -30.2 3 +15 +15 1024.1 912.0
09 18.07 штиль 0
{1}
н/о н/о +14.2 -30.6 3 +14 +14 1024.8 912.5
10 18.07 штиль 0
{1}
н/о н/о +14.4 -30.4 3 +15 +15 1024.9 912.6
11 18.07 штиль 0
{1}
н/о н/о +16.4 -29.0 3 +17 +17 1024.4 912.9
12 18.07 штиль 0
{2}
н/о н/о +18.2 -4.9 20 +18 +18 1024.2 913.4
14 18.07 В 1
{2}
н/о н/о +19.7 +18.8 95 +24 +24 комфорт 1023.4 913.2
13 18.07 штиль 0
{2}
н/о н/о +19.5 -26.9 3 +19 +19 1023.6 913.3
15 18.07 В 1
{2}
н/о н/о +20.8 +19.7 93 +27 +27 душно 1021.9 912.3
16 18.07 Ю 1
{2}
н/о н/о +20.3 +19.3 94 +26 +26 душно 1021.6 911.8
17 18.07 В 1
{2}
н/о н/о +20.7 -26.2 3 +21 +21 комфорт 1020.6 911.1
18 18.07 В 1
{2}
н/о н/о +18.9 +15.9 83 +22 +22 комфорт 1021.0 910.8
20 18.07 штиль 0
{1}
н/о н/о +17.3 -28.5 3 +17 +17 1022.1 911.2
19 18.07 штиль 0
{2}
н/о н/о +17.9 -28.1 3 +18 +18 1021.5 910.9
21 18.07 штиль 0
{2}
н/о н/о +16.2 -7.8 18 +16 +16 1022.5 911.2
22 18.07 штиль 0
{1}
н/о н/о +16.1 -29.3 3 +16 +16 1023.0 911.6
23 18.07 штиль 0
{1}
н/о н/о +15.2 -29.9 3 +15 +15 1023.7 911.9
00 19.07 штиль 0
{1}
н/о н/о +14.6 -30.3 3 +15 +15 1024.1 912.0
02 19.07 штиль 0
{1}
н/о н/о +14.8 -30.1 3 +15 +15 1023.6 911.6
01 19.07 штиль 0
{1}
н/о н/о +14.9 -30.1 3 +15 +15 1024.1 912.1
03 19.07 штиль 0
{1}
н/о н/о +14.6 -30.3 3 +15 +15 1023.5 911.5
04 19.07 штиль 0
{1}
н/о н/о +14.4 -30.4 3 +15 +15 1023.6 911.5
05 19.07 штиль 0
{1}
н/о н/о +13.9 -30.8 3 +14 +14 1023.1 910.9
06 19.07 штиль 0
{1}
н/о н/о +13.5 -31.0 3 +14 +14 1022.9 910.5
08 19.07 С 1
{2}
н/о н/о +13.8 -30.8 3 +15 +15 1022.9 910.6
07 19.07 СВ 1
{2}
н/о н/о +13.7 -30.9 3 +15 +15 1022.7 910.4
09 19.07 штиль 0
{2}
н/о н/о +13.6 -31.0 3 +14 +14 1023.0 910.7
10 19.07 С 1
{2}
н/о н/о +14.4 -30.4 3 +16 +16 1022.9 910.9
11 19.07 штиль 0
{2}
н/о н/о +15.7 -29.6 3 +16 +16 1022.6 911.1 0.4
12 19.07 ЮВ 1
{2}
н/о н/о +17.5 +19 +19 1022.5 911.6
14 19.07 С 1
{2}
н/о н/о +18.5 -27.6 3 +20 +20 1021.8 911.4
13 19.07 СВ 1
{2}
н/о н/о +18.7 -27.5 3 +20 +20 1022.2 911.8
15 19.07 ЮЗ 1
{2}
н/о н/о +20.6 +19.6 94 +26 +26 душно 1020.2 910.7
16 19.07 штиль 0
{2}
н/о н/о +19.0 +18.1 95 +21 +21 комфорт 1020.2 910.1
17 19.07 С 1
{2}
н/о н/о +20.8 -26.1 3 +21 +21 комфорт 1018.8 909.5
18 19.07 штиль 0
{2}
н/о н/о +19.1 -27.2 3 +18 +18 1019.2 909.3
20 19.07 штиль 0
{1}
н/о н/о +16.5 -29.0 3 +17 +17 1020.6 909.6
19 19.07 штиль 0
{1}
н/о н/о +19.0 -27.3 3 +18 +18 1019.2 909.2
21 19.07 штиль 0
{1}
н/о н/о +15.4 -29.8 3 +16 +16 1021.2 909.7
22 19.07 штиль 0
{1}
н/о н/о +15.3 -29.8 3 +15 +15 1021.6 910.0
23 19.07 штиль 0
{1}
н/о н/о +14.6 -30.3 3 +15 +15 1022.3 910.4
00 20.07 штиль 0
{2}
н/о н/о +14.1 -30.7 3 +14 +14 1022.8 910.7
02 20.07 штиль 0
{1}
н/о н/о +13.7 -30.9 3 +14 +14 1023.5 911.1
01 20.07 штиль 0
{1}
н/о н/о +13.9 -30.8 3 +14 +14 1023.1 910.9
03 20.07 штиль 0
{1}
н/о н/о +13.3 -31.2 3 +14 +14 1023.6 911.1
04 20.07 С 1
{2}
н/о н/о +13.6 -5.3 26 +15 +15 1022.8 910.5
05 20.07 С 1
{2}
н/о н/о +13.8 -30.8 3 +15 +15 1022.2 910.0
06 20.07 С 1
{2}
н/о н/о +14.2 -30.5 3 +15 +15 1021.7 909.7
08 20.07 С 1
{2}
н/о н/о +14.2 -30.5 3 +15 +15 1021.5 909.5
07 20.07 С 1
{2}
н/о н/о +14.2 -30.5 3 +15 +15 1021.6 909.6
09 20.07 С 1
{2}
н/о н/о +14.4 -30.4 3 +15 +15 1021.6 909.7
10 20.07 С 1
{2}
н/о н/о +14.9 -30.1 3 +16 +16 1021.4 909.7
11 20.07 СЗ 1
{3}
н/о н/о +15.7 -29.5 3 +17 +17 1021.4 910.0
12 20.07 СЗ 1
{2}
н/о н/о +17.0 -28.7 3 +19 +19 1021.7 910.7
14 20.07 СЗ 1
{2}
н/о н/о +19.6 -26.9 3 +20 +20 1020.4 910.5
13 20.07 СЗ 1
{3}
н/о н/о +17.8 -28.1 3 +19 +19 1021.3 910.7
15 20.07 СЗ 1
{2}
н/о н/о +19.0 -27.3 3 +20 +20 1020.0 909.9
16 20.07 С 1
{2}
н/о н/о +21.1 -25.9 3 +19 +19 1018.5 909.3
17 20.07 СЗ 1
{2}
н/о н/о +21.2 -25.8 3 +19 +19 1018.1 909.0
18 20.07 СЗ 1
{2}
н/о н/о +20.7 -28.1 2 +22 +22 комфорт 1017.9 908.7
20 20.07 штиль 0
{2}
н/о н/о +17.7 -28.2 3 +18 +18 1019.5 909.0
19 20.07 С 1
{2}
н/о н/о +19.6 +1.7 30 +21 +21 комфорт 1018.5 908.8
21 20.07 штиль 0
{1}
н/о н/о +15.5 -29.7 3 +16 +16 1020.8 909.4
22 20.07 штиль 0
{1}
н/о н/о +15.9 -29.4 3 +16 +16 1021.1 909.8
23 20.07 штиль 0
{1}
н/о н/о +15.3 -29.8 3 +15 +15 1021.8 910.2
00 21.07 штиль 0
{2}
н/о н/о +14.1 -30.6 3 +14 +14 1022.5 910.4
02 21.07 С 1
{2}
н/о н/о +14.7 -30.2 3 +16 +16 1022.4 910.5
01 21.07 СВ 1
{2}
н/о н/о +14.2 -30.6 3 +16 +16 1022.6 910.5
03 21.07 С 2
{2}
н/о н/о +14.8 -30.1 3 +15 +15 1022.2 910.4
04 21.07
{3}
н/о н/о +14.2 -30.6 3 1022.0 910.0
05 21.07 С 1
{3}
н/о н/о +13.9 -30.8 3 +15 +15 1021.8 909.7
06 21.07 С 1
{2}
н/о н/о +13.3 -31.2 3 +15 +15 1021.7 909.4
08 21.07 С 1
{2}
н/о н/о +13.8 -14.8 12 +15 +15 1021.3 909.2
07 21.07 С 1
{2}
н/о н/о +13.2 -31.2 3 +14 +14 1021.8 909.4
09 21.07 СЗ 1
{3}
н/о н/о +13.2 -31.3 3 +14 +14 1022.1 909.7
10 21.07 СЗ 2
{3}
н/о н/о +13.4 -31.1 3 +14 +14 1022.2 909.9
11 21.07 СЗ 2
{4}
н/о н/о +15.3 -29.8 3 +16 +16 1021.9 910.3
12 21.07 СЗ 2
{3}
н/о н/о +15.4 -29.7 3 +16 +16 1022.4 910.8
14 21.07 СЗ 1
{3}
н/о н/о +19.0 -27.3 3 +20 +20 1021.1 910.9
13 21.07 СЗ 1
{3}
н/о н/о +16.8 -28.8 3 +18 +18 1022.1 911.0
15 21.07 СЗ 1
{3}
н/о н/о +19.1 -27.2 3 +20 +20 1020.2 910.2
16 21.07 С 1
{3}
н/о н/о +20.3 -26.4 3 +21 +21 комфорт 1019.1 909.6
17 21.07
{3}
н/о н/о +20.8 -26.1 3 1017.9 908.7
18 21.07 С 1
{3}
н/о н/о +19.8 -26.8 3 +20 +20 1018.0 908.4
20 21.07 СЗ 1
{2}
н/о н/о +18.4 -27.7 3 +20 +20 1019.0 908.8
19 21.07 С 1
{2}
н/о н/о +19.1 -27.2 3 +20 +20 1018.0 908.2
21 21.07 штиль 0
{2}
н/о н/о +16.7 -28.9 3 +17 +17 1019.6 908.8
22 21.07 штиль 0
{1}
н/о н/о +16.3 -29.1 3 +16 +16 1020.1 909.1
23 21.07 штиль 0
{1}
н/о н/о +15.4 -29.8 3 +16 +16 1021.0 909.5
00 22.07 штиль 0
{1}
н/о н/о +15.5 -29.7 3 +16 +16 1021.6 910.1
02 22.07 С 2
{2}
н/о н/о +15.6 -29.6 3 +16 +16 1021.3 909.9
01 22.07 С 1
{2}
н/о н/о +16.1 -29.3 3 +17 +17 1021.6 910.3
03 22.07 С 2
{3}
н/о н/о +15.4 -29.8 3 +16 +16 1021.4 909.9
04 22.07 СЗ 2
{3}
н/о н/о +14.9 -30.1 3 +15 +15 1021.2 909.5
05 22.07 СЗ 2
{3}
н/о н/о +14.6 -30.3 3 +15 +15 1020.9 909.2
06 22.07 С 2
{3}
н/о н/о +15.1 -30.0 3 +16 +16 1020.5 909.0
08 22.07 С 2
{3}
н/о н/о +15.4 -29.8 3 +16 +16 1020.7 909.3
07 22.07 С 2
{3}
н/о н/о +15.2 -29.9 3 +16 +16 1020.5 909.0
09 22.07 С 1
{2}
н/о н/о +15.4 -29.7 3 +16 +16 1021.5 910.0
10 22.07 штиль 0
{2}
н/о н/о +15.8 -29.5 3 +16 +16 1022.3 910.8
11 22.07 штиль 0
{1}
н/о н/о +16.5 -29.0 3 +17 +17 1023.0 911.7
12 22.07 ЮЗ 1
{1}
н/о н/о +17.8 -28.1 3 +19 +19 1023.2 912.4
14 22.07 З 1
{1}
н/о н/о +20.8 -26.1 3 +21 +21 комфорт 1021.8 912.2
13 22.07 З 1
{1}
н/о н/о +16.6 -28.9 3 +18 +18 1023.8 912.5
15 22.07 В 1
{2}
н/о н/о +19.6 -10.5 12 +21 +21 комфорт 1022.0 911.9
16 22.07 В 1
{2}
н/о н/о +19.7 -26.9 3 +20 +20 1021.6 911.6
17 22.07 В 1
{2}
н/о н/о +20.2 -26.5 3 +20 +20 1020.8 911.1
18 22.07 В 1
{2}
н/о н/о +19.1 -27.2 3 +20 +20 1021.0 910.9
20 22.07 В 1
{2}
н/о н/о +17.2 -28.5 3 +18 +18 1021.9 911.0
19 22.07 В 1
{2}
н/о н/о +18.6 -27.6 3 +20 +20 1021.3 911.0
21 22.07 В 1
{2}
н/о н/о +16.6 -28.9 3 +18 +18 1022.5 911.3
22 22.07 В 1
{2}
н/о н/о +16.0 -29.3 3 +17 +17 1023.3 911.8
23 22.07 В 1
{2}
н/о н/о +15.7 -29.6 3 +17 +17 1024.3 912.6
00 23.07 В 1
{2}
н/о н/о +15.4 -13.6 12 +17 +17 1024.6 912.7

 

Местоположение метеостанции Santa Tereza (Бразилия): широта -19.98 долгота -40.58 высота над уровнем моря 990 м.

В архиве по умолчанию представлена погода в Santa Tereza за последнюю неделю. Архивные данные за месяц целиком и за предыдущие месяцы, начиная с января 2011 года, Вы можете получить, выбрав интересующий диапазон дат из раскрывающегося списка и нажав кнопку "Ввод!".


*Определитесь, кто Вы:
робот инопланетянин человек

Внимание! Время в таблицах - всемирное. Для получения местного времени необходимо прибавить поправку, которая в Santa Tereza равна -3 ч.

Смотрите также архив погоды в соседних городах и на ближайших метеорологических станциях:

Погода в Vitoria (Бразилия) (44 км)
Погода в Vitoria (Бразилия) (47 км)
Погода в Alfredo Chaves (Бразилия) (74 км)
Погода в Aimores (Бразилия) (74 км)
Погода в Aimores (Бразилия) (75 км)
Погода в Linhares (Бразилия) (88 км)
Погода в Alegre (Бразилия) (127 км)
Погода в Presidente Kennedy (Бразилия) (133 км)
Погода в Mantena (Бразилия) (140 км)
Погода в Nova Venecia (Бразилия) (144 км)

Пояснения к столбцам:

Ветер - указаны скорость ветра в м/с - средняя за 10 мин, порывы в срок и между сроками (в фигурных скобках) и направление, откуда дует ветер: С - северный, СВ - северо-восточный, В - восточный, ЮВ - юго-восточный, Ю - южный, ЮЗ - юго-западный, З - западный, СЗ - северо-западный.
Видимость - горизонтальная дальность видимости в метрах или километрах. При видимости от 1 до 10 км при отсутствии осадков обычно наблюдается дымка, при ухудшении видимости до 1 км и менее - туман. В сухую погоду видимость может ухудшаться дымом, пылью или мглою.
Явления - указаны атмосферные явления, наблюдавшиеся в срок или в последний час перед сроком; фигурными скобками обозначены явления, наблюдавшиеся между сроками (за 1-3 часа до срока); квадратными скобками обозначены град или гололедные отложения с указанием их диаметра в мм.
Облачность - указаны через наклонную черту общая и нижняя облачность в баллах и высота нижней границы облаков в метрах; квадратными скобками обозначены формы облаков: Ci - перистые, Cs - перисто-слоистые, Cc - перисто-кучевые, Ac - высококучевые, As - высокослоистые, Sc - слоисто-кучевые, Ns - слоисто-дождевые, Cu - кучевые, Cb - кучево-дождевые. Подробнее классификацию облаков см. в Атласе облаков (PDF).
T - Температура воздуха - температура, измеренная на высоте 2 м над землей.
Td - Температура точки росы - температура, при понижении до которой содержащийся в воздухе водяной пар достигнет насыщения.
f - Относительная влажность воздуха - влажноcть воздуха, измеренная на высоте 2 м над землей.
Te - Эффективная температура - температура, которую ощущает одетый по сезону человек в тени. Характеристика душности погоды. При расчете учитывается влияние влажности воздуха и скорости ветра на теплоощущения человека.
Tes - Эффективная температура на солнце - температура, которую ощущает человек, с поправкой на солнечный нагрев. Характеристика знойности погоды. Зависит от высоты солнца над горизонтом, облачности и скорости ветра. Ночью, в пасмурную погоду, а также при ветре 12 м/с и более поправка равна нулю.
P - Атмосферное давление - приведенное к уровню моря атмосферное давление.
Po - Атмосферное давление - измеренное на уровне метеостанции атмосферное давление.
Tmin - Минимальная температура - минимум температуры воздуха на высоте 2 м над землей.
Tmax - Максимальная температура - максимум температуры воздуха на высоте 2 м над землей.
R - Количество осадков - Количество выпавших осадков за период времени, мм. При наведении курсора мыши на число - период времени, за который выпало указанное количество осадков.
R24 - Количество осадков - Количество выпавших осадков за 24 часа, мм.
S - Снежный покров - Высота снежного покрова, см. При наведении курсора мыши на число - состояние снежного покрова и степень покрытия местности в баллах.